Location: ??? ????
(38.0580°N, 23.1536°E)
Time: 21:37:49
(UTC+00:00)

Daily predictions for brighter satellites

Satellite Brightness Start Highest point End
(mag) Time Altitude Azimuth Time Altitude Azimuth Time Altitude Azimuth
Cosmos 1726 Rocket 4.1 15:30:46 10° SSE 15:35:08 43° E 15:39:29 10° NNE
Cosmos 1900 4.4 15:31:14 10° NNW 15:36:12 60° ENE 15:41:03 10° SE
Cosmos 2151 2.9 15:32:11 10° N 15:36:21 81° E 15:40:30 10° S
SMAP 3.2 15:33:47 10° SSE 15:38:16 51° ENE 15:42:48 10° N
BREEZE-M DEB (TANK) 4.2 15:35:42 10° NNW 15:38:41 25° NNE 15:45:37 10° E
IRIDIUM 104 4.3 15:34:52 10° N 15:40:06 73° E 15:45:18 10° S
Meteor 1-20 Rocket 4.1 15:34:44 10° N 15:40:12 77° E 15:45:41 10° SSE
Landsat 7 4.1 15:38:04 10° SE 15:42:27 43° ENE 15:46:51 10° N
Cosmos 2297 Rocket 2.6 15:36:54 10° NNW 15:42:33 69° WSW 15:48:08 10° SSE
Hubble Space Telescope 2.9 15:41:09 10° SW 15:43:43 17° S 15:46:16 10° SE
GEOS 3 Rocket 3.9 15:40:01 10° NNE 15:45:24 79° NW 15:50:45 10° SW
Cosmos 2084 Rocket 3.4 15:42:21 10° NNW 15:46:35 88° ENE 15:50:46 10° SSE
YAOGAN 1 4.3 15:45:19 10° E 15:47:07 12° ENE 15:48:54 10° NE
Cosmos 1602 Rocket 3.9 15:44:15 10° NNW 15:48:36 69° W 15:52:52 10° S
IRIDIUM 114 4.4 15:44:00 10° N 15:49:15 89° E 15:54:28 10° S
Cosmos 990 Rocket 4.3 15:45:03 10° SSW 15:50:07 70° WNW 15:55:16 10° NNE
COSMOS 2455 4.1 15:47:00 10° SSE 15:51:20 21° ESE 15:55:26 11° ENE
SL-16 R/B 3.6 15:47:32 10° N 15:53:25 46° WNW 15:59:15 10° SW
BREEZE M DEB (TANK) 4.1 15:53:41 10° WNW 15:55:18 15° NNW 15:56:39 10° NNE
Okean 1-7 Rocket 3.6 15:51:41 10° N 15:56:05 87° W 16:00:25 10° S
CORIOLIS 4.2 15:54:06 10° SSE 15:59:26 90° WSW 16:04:48 10° NNW
Cosmos 1980 Rocket 2.2 15:54:58 10° SSW 16:00:36 77° ESE 16:06:15 10° NNE
Okean 1 4.2 15:58:42 10° SE 16:01:39 24° E 16:04:05 13° NE
SKYMED 2 4.2 15:59:14 10° NNE 16:03:15 35° E 16:07:12 10° SSE
Aureole 1 Rocket 3.2 15:59:53 10° S 16:04:03 71° ESE 16:09:26 10° NNE
Cosmos 2219 4.0 16:00:37 10° N 16:05:36 29° ENE 16:10:34 10° ESE
ARIANE 5 R/B 2.4 16:04:28 10° SSE 16:09:30 80° ENE 16:14:38 10° N
IRS-1C 4.1 16:04:57 10° SSE 16:10:16 80° ENE 16:15:36 10° N
Cosmos 1953 Rocket 3.6 16:08:58 10° N 16:13:21 57° E 16:17:43 10° SSE
Cosmos 2263 Rocket 2.3 16:08:40 10° NNW 16:14:11 50° ENE 16:19:42 10° SE
Cosmos 1867 3.9 16:10:29 10° NW 16:15:55 70° WSW 16:21:17 10° SSE
Helios 1A Rocket 3.9 16:18:12 20° ESE 16:18:12 20° ESE 16:20:31 10° SE
Cosmos 2369 3.8 16:12:31 10° S 16:18:06 58° ESE 16:23:23 12° NNE
Meteor 1-5 Rocket 4.1 16:13:22 10° N 16:18:47 82° E 16:24:21 10° S
Cosmos 1825 Rocket 4.0 16:16:55 10° NNW 16:21:11 62° W 16:25:24 10° S
SAR-Lupe-4 3.8 16:18:54 10° S 16:22:26 70° WSW 16:25:59 10° NNW
Meteor 2-10 4.2 16:18:58 10° N 16:24:20 56° E 16:29:50 10° SSE
COSMO-SKYMED 1 2.9 16:22:48 18° NE 16:25:25 39° E 16:29:16 10° SSE
Cosmos 1076 Rocket 3.5 16:24:04 10° N 16:28:24 85° W 16:32:42 10° S
Cosmos 1655 Rocket 4.0 16:22:57 10° N 16:29:12 90° WSW 16:35:25 10° S
SPOT 1/Viking Rocket 3.5 16:28:12 10° SSE 16:33:20 64° ENE 16:38:29 10° N
Cosmos 2360 Rocket 4.2 16:31:16 10° ESE 16:31:17 10° ESE 16:31:17 10° ESE
USA 81 3.9 16:28:40 10° N 16:33:56 70° E 16:39:10 10° S
Cosmos 2227 Rocket 2.8 16:28:38 10° NNW 16:34:12 61° WSW 16:39:44 10° S
Cosmos 2221 4.1 16:36:43 10° SE 16:38:13 18° SE 16:38:13 18° SE
Cosmos 2058 Rocket 3.4 16:39:14 10° SSW 16:43:40 68° W 16:48:09 10° N
Cosmos 2333 Rocket 3.2 16:43:08 10° SSE 16:47:30 27° ESE 16:47:30 27° ESE
Cosmos 1538 Rocket 4.1 16:44:48 10° NNW 16:50:06 78° WSW 16:55:26 10° SSE
Cosmos 2322 Rocket 3.6 16:54:28 10° SSE 16:57:11 22° SE 16:57:11 22° SE
USA 59 Rocket 1.5 16:57:15 10° S 16:59:19 20° SSE 16:59:19 20° SSE
Resurs 1-3 3.4 16:59:26 10° SSE 17:03:42 87° E 17:08:02 10° N
Cosmos-2242 4.4 17:03:01 10° SSW 17:06:57 37° WNW 17:10:56 10° N
USA 308 3.4 17:06:33 10° SW 17:08:32 38° SSW 17:08:32 38° SSW
Spot 4 Rocket 4.0 17:05:08 10° SSE 17:10:13 82° WSW 17:15:22 10° NNW
SJ-7 4.2 17:06:51 10° S 17:14:37 - NNW 17:10:22 73° SW
Cosmos 1553 Rocket 4.2 17:06:40 10° SSW 17:12:45 69° W 17:19:00 10° N
Nadezhda 2 Rocket 4.4 17:06:49 10° N 17:12:56 83° W 17:19:02 10° S
S3M 4.0 17:07:07 10° SSE 17:13:17 55° E 17:14:31 48° NE
DMSP B5D1-3 4.3 17:15:02 67° ENE 17:15:31 72° ESE 17:20:32 10° S
IRAS Rocket 4.1 17:10:55 10° SSE 17:16:23 87° ENE 17:21:53 10° NNW
YAOGAN 1 3.2 17:18:18 10° S 17:22:28 54° W 17:26:38 10° NNW
Cosmos 2082 3.7 17:17:07 10° NNW 17:22:51 83° WSW 17:28:33 10° SSE
Hubble Space Telescope 2.8 17:20:22 10° SW 17:22:42 18° SSW 17:22:42 18° SSW
Meteor 2-6 Rocket 4.4 17:20:05 10° SSW 17:25:42 73° W 17:29:21 24° N
SL-16 R/B 2.0 17:23:25 10° SSW 17:29:04 86° ESE 17:29:26 79° NE
Cosmos 923 Rocket 4.0 17:26:25 10° NNW 17:31:37 77° WSW 17:32:38 57° S
Cosmos 1745 Rocket 3.8 17:28:45 10° N 17:36:52 46° SSE 17:41:02 10° S
COSMOS 2455 3.3 17:30:51 10° SW 17:36:45 56° WNW 17:38:36 41° N
BREEZE-M DEB (TANK) 4.0 17:28:10 10° WNW 17:44:11 55° NNE 17:44:17 55° NNE
Cosmos 2278 4.1 17:49:13 10° SSW 17:54:09 60° WSW 17:54:09 60° WSW
Cosmos 2360 Rocket 4.0 18:11:09 10° SSW 18:13:06 22° SSW 18:13:06 22° SSW
Cosmos 2333 Rocket 4.0 18:26:31 10° SW 18:29:34 28° WSW 18:29:34 28° WSW
Cosmos 2322 Rocket 4.5 18:37:27 10° SW 18:39:02 19° WSW 18:39:02 19° WSW
